Location: Newark
(48.0000°N, 67.0000°E)
Time: 00:03:01
(UTC+00:00)

A-11 Canister half - Pass Details

Date: 27 February 2020
Orbit: 1516 x 1683 km, 47.2° (Epoch: 08 April)

Event Time Altitude Azimuth Distance (km) Brightness Sun altitude
Rises 14:04:09 0° 279° (W) 4,891 13.6 -9.5°
Reaches altitude 10° 14:07:20 10° 278° (W) 3,884 12.7 -10.0°
Maximum altitude 14:17:14 80° 194° (SSW) 1,624 9.1 -11.6°
Enters shadow 14:25:47 14° 110° (ESE) 3,435 10.2 -13.1°
